Regional Weather Roundup
Issued by NWS

Home | Current Version | Previous Version | Text Only | Print | Product List | Glossary Off
Versions: 1 2 3 4 5 6 7 8 9 10 11 12 13 14 15 16 17 18 19 20 21 22 23 24 25 26 27 28 29 30 31 32 33 34 35 36 37 38 39 40 41 42 43 44 45 46 47 48 49 50

634
ASUS43 KIND 221359
RWRIN

WEATHER ROUNDUP FOR INDIANA
NATIONAL WEATHER SERVICE INDIANAPOLIS IN
1000 AM EDT WED MAR 22 2017

NOTE: "FAIR" INDICATES FEW OR NO CLOUDS BELOW 12,000 FEET WITH NO
SIGNIFICANT WEATHER AND/OR OBSTRUCTIONS TO VISIBILITY.

* - STATION DOES NOT REPORT WEATHER SUCH AS PRECIPITATION OR FOG.

+ - STATION NOT QUALITY CONTROLLED BY THE NATIONAL WEATHER SERVICE.
    USE DATA WITH CAUTION...ESPECIALLY DEWPOINT AND RELATIVE
    HUMIDITY OBSERVATIONS.

INZ001>003-010>013-019-020-221500-
NORTHWEST INDIANA

CITY           SKY/WX    TMP DP  RH WIND       PRES   REMARKS
GARY /AIRPORT/ PTSUNNY   30  16  55 NE20      30.57R WCI  18
KNOX *+        MOSUNNY   27  -9  20 NE15      30.55R WCI  15
MONTICELLO +   SUNNY     26   9  49 E10G20    30.53R WCI  16

$$

LMZ046-743>745-221500-
SOUTHERN LAKE MICHIGAN

STATION/POSITION TIME  TEMP    WIND        PRES    WAVE
                       AIR SEA DIR/SP/G            HT
                 (UTC) (F)     (DEG/KT/KT) (MB)    (FT)
BURNS HARBOR     1340   26      80/ 12/ 17 1035.2R
MICHIGAN CITY    1330   24      50/ 17/ 20   N/A

$$

INZ004-005-014>016-021>024-221500-
NORTH CENTRAL INDIANA

CITY           SKY/WX    TMP DP  RH WIND       PRES   REMARKS
ELKHART        SUNNY     25  10  54 E9        30.55R WCI  15
GOSHEN         SUNNY     24   8  50 NE15      30.54R WCI  11
SOUTH BEND     SUNNY     23  11  60 NE9       30.56R WCI  13

$$

INZ006>009-017-018-025>027-221500-
NORTHEAST INDIANA

CITY           SKY/WX    TMP DP  RH WIND       PRES   REMARKS
ANGOLA *+      SUNNY     21   7  53 NE9       30.52R WCI  11
FORT WAYNE     SUNNY     25  11  55 NE14G22   30.53R WCI  13
KENDALLVILLE + SUNNY     24   9  54 E15       30.52R WCI  11

$$

INZ028-029-035-036-043>045-051>053-221500-
WEST CENTRAL INDIANA

CITY           SKY/WX    TMP DP  RH WIND       PRES   REMARKS
CRAWFORDSVL +  SUNNY     27  14  58 NE15      30.50R WCI  16
GREENCASTLE +  SUNNY     30  16  55 NE13      30.49R WCI  20
LAFAYETTE      SUNNY     27  12  53 NE14      30.53R WCI  16
TERRE HAUTE    SUNNY     32  17  54 NE14      30.49R WCI  22

$$

INZ030>032-037>040-046>048-054>057-064-065-221500-
CENTRAL INDIANA

CITY           SKY/WX    TMP DP  RH WIND       PRES   REMARKS
ANDERSON       SUNNY     27  16  63 NE12      30.50R WCI  16
CP ATTERBURY + SUNNY     32  18  55 NE13      30.49R WCI  22
COLUMBUS       SUNNY     30  19  64 NE16      30.49R WCI  19
GREENWOOD *+   SUNNY     30  15  52 E10       30.48R WCI  21
INDIANAPOLIS   MOSUNNY   30  13  49 NE14      30.48R WCI  19
-EAGLE CREEK   SUNNY     29  13  51 NE12      30.49R WCI  19
KOKOMO +       SUNNY     26  15  63 NE16      30.52R WCI  14
SHELBYVILLE    SUNNY     30  15  53 NE14      30.48R WCI  19

$$

INZ033-034-041-042-049-050-058-059-221500-
EAST CENTRAL INDIANA

CITY           SKY/WX    TMP DP  RH WIND       PRES   REMARKS
MUNCIE         MOSUNNY   26  14  60 NE16      30.50R WCI  14
RICHMOND +     SUNNY     27  16  63 NE14      30.46R WCI  15

$$

INZ060-061-067>069-081>083-085>088-221500-
SOUTHWEST INDIANA

CITY           SKY/WX    TMP DP  RH WIND       PRES   REMARKS
EVANSVILLE     SUNNY     40  22  48 E13       30.44R
HUNTINGBURG *+ SUNNY     37  23  56 NE15      30.44R

$$

INZ062-063-066-070>080-084-089>092-221500-
SOUTH CENTRAL AND SOUTHEAST INDIANA

CITY           SKY/WX    TMP DP  RH WIND       PRES   REMARKS
BLOOMINGTON    SUNNY     34  17  50 NE13      30.45R WCI  25
MADISON *+     SUNNY     34  18  51 N8        30.46R WCI  27
SEYMOUR +      SUNNY     36  18  48 N15       30.47R

$$





USA.gov is the U.S. government's official web portal to all federal, state and local government web resources and services.